Smithfield, NC

5:04 AM EST on January 20, 2017 (GMT -0500)
Johnston County

Weather History for KJNX - February, 2013

Change the Weather History Date:

Friday, February 8, 2013

  Actual Average Record
Temperature  
Mean Temperature 48 °F -  
Max Temperature 55 °F 51 °F 77 °F (2009)
Min Temperature 42 °F 28 °F 10 °F (1977)
Degree Days  
Heating Degree Days 16    
Moisture  
Dew Point 41 °F    
Average Humidity 82    
Maximum Humidity 100    
Minimum Humidity 50    
Precipitation  
Precipitation 0.55 in - - ()
Sea Level Pressure  
Sea Level Pressure 29.86 in    
Wind  
Wind Speed 11 mph (NW)    
Max Wind Speed 24 mph    
Max Gust Speed 30 mph    
Visibility 10 miles    
Events      
Averages and records for this station are not official NWS values.
T = Trace of Precipitation, MM = Missing Value Source: NWS Daily Summary

Daily Weather History Graph

Daily Weather History Graph

Search for Another Location

Airport or City:

Trip Planner

Search our weather history database for the weather conditions in past years. The results will help you decide how hot, cold, wet, or windy it might be!

Date:

Astronomy

Feb. 08, 2013 Rise Set
Actual Time 7:07 AM EST 5:48 PM EST
Civil Twilight 6:40 AM EST 6:15 PM EST
Nautical Twilight 6:10 AM EST 6:45 PM EST
Astronomical Twilight 5:40 AM EST 7:15 PM EST
Moon 5:32 AM EST (2/8) 4:21 PM EST (2/8)
Length of Visible Light 11h 34m
Length of Day
10h 41m
Waning Crescent, 3% of the Moon is Illuminated
Feb 8
Waning Crescent
Feb 10
New
Feb 17
First Quarter
Feb 25
Full
Mar 4
Last Quarter

Hourly Weather History & Observations

Time (EST) Temp. Windchill Dew Point Humidity Pressure Visibility Wind Dir Wind Speed Gust Speed Precip Events Conditions
12:15 AM 44.6 °F 38.4 °F 44.6 °F 100% 29.93 in 7.0 mi NNE 12.7 mph 16.1 mph 0.05 in   Overcast
12:35 AM 44.6 °F 39.2 °F 44.6 °F 100% 29.91 in 7.0 mi NNE 10.4 mph 17.3 mph 0.11 in   Overcast
12:55 AM 44.6 °F 38.1 °F 44.6 °F 100% 29.89 in 7.0 mi North 13.8 mph - 0.19 in   Overcast
1:15 AM 44.6 °F 38.1 °F 44.6 °F 100% 29.87 in 10.0 mi NNE 13.8 mph - 0.03 in   Overcast
1:35 AM 44.6 °F 37.2 °F 44.6 °F 100% 29.85 in 10.0 mi NNE 17.3 mph 24.2 mph 0.06 in   Overcast
1:55 AM 44.6 °F 38.1 °F 44.6 °F 100% 29.84 in 7.0 mi North 13.8 mph 20.7 mph 0.14 in   Overcast
2:15 AM 44.6 °F 37.8 °F 44.6 °F 100% 29.83 in 7.0 mi North 15.0 mph 20.7 mph 0.05 in   Overcast
2:35 AM 44.6 °F 36.9 °F 44.6 °F 100% 29.81 in 7.0 mi North 18.4 mph 26.5 mph 0.11 in   Overcast
2:55 AM 44.6 °F 36.6 °F 44.6 °F 100% 29.81 in 7.0 mi North 19.6 mph 26.5 mph 0.16 in   Overcast
3:15 AM 44.6 °F 38.4 °F 44.6 °F 100% 29.80 in 10.0 mi North 12.7 mph 24.2 mph 0.02 in   Overcast
3:35 AM 44.6 °F 35.7 °F 44.6 °F 100% 29.77 in 10.0 mi North 24.2 mph 28.8 mph 0.04 in   Overcast
3:55 AM 44.6 °F 37.8 °F 44.6 °F 100% 29.76 in 10.0 mi North 15.0 mph 29.9 mph 0.04 in   Overcast
4:15 AM 44.6 °F 36.6 °F 44.6 °F 100% 29.75 in 10.0 mi North 19.6 mph 24.2 mph N/A   Overcast
4:35 AM 44.6 °F 37.2 °F 42.8 °F 93% 29.75 in 10.0 mi North 17.3 mph 28.8 mph 0.01 in   Overcast
4:55 AM 44.6 °F 36.6 °F 42.8 °F 93% 29.74 in 10.0 mi North 19.6 mph 23.0 mph 0.02 in   Overcast
5:15 AM 44.6 °F 37.4 °F 42.8 °F 93% 29.75 in 10.0 mi North 16.1 mph 24.2 mph N/A   Overcast
5:35 AM 44.6 °F 38.1 °F 42.8 °F 93% 29.76 in 10.0 mi North 13.8 mph 24.2 mph N/A   Overcast
5:55 AM 44.6 °F 37.4 °F 44.6 °F 100% 29.76 in 10.0 mi North 16.1 mph 20.7 mph N/A   Overcast
6:15 AM 44.6 °F 38.8 °F 42.8 °F 93% 29.77 in 10.0 mi North 11.5 mph 24.2 mph N/A   Overcast
6:35 AM 44.6 °F 38.8 °F 42.8 °F 93% 29.77 in 10.0 mi North 11.5 mph 19.6 mph N/A   Overcast
6:55 AM 42.8 °F 38.0 °F 41.0 °F 93% 29.78 in 10.0 mi North 8.1 mph - N/A   Overcast
7:15 AM 42.8 °F 40.1 °F 41.0 °F 93% 29.79 in 10.0 mi NNW 4.6 mph - N/A   Mostly Cloudy
7:35 AM 42.8 °F 38.6 °F 42.8 °F 100% 29.80 in 10.0 mi NNW 6.9 mph - N/A   Overcast
7:55 AM 42.8 °F 37.0 °F 42.8 °F 100% 29.81 in 10.0 mi North 10.4 mph - N/A   Overcast
8:15 AM 42.8 °F 38.6 °F 42.8 °F 100% 29.81 in 10.0 mi North 6.9 mph - N/A   Overcast
8:35 AM 42.8 °F 39.3 °F 41.0 °F 93% 29.82 in 10.0 mi NNW 5.8 mph - N/A   Overcast
8:55 AM 42.8 °F 38.6 °F 41.0 °F 93% 29.82 in 10.0 mi NNW 6.9 mph 17.3 mph N/A   Overcast
9:15 AM 42.8 °F 38.6 °F 41.0 °F 93% 29.82 in 10.0 mi North 6.9 mph - N/A   Overcast
9:35 AM 42.8 °F 38.0 °F 41.0 °F 93% 29.82 in 10.0 mi NNW 8.1 mph 16.1 mph N/A   Overcast
9:55 AM 42.8 °F 38.6 °F 39.2 °F 87% 29.84 in 10.0 mi NNW 6.9 mph - N/A   Overcast
10:15 AM 42.8 °F 39.3 °F 39.2 °F 87% 29.85 in 10.0 mi NNW 5.8 mph - N/A   Overcast
10:35 AM 42.8 °F 38.0 °F 41.0 °F 93% 29.86 in 10.0 mi NW 8.1 mph - N/A   Overcast
10:55 AM 42.8 °F 39.3 °F 39.2 °F 87% 29.87 in 10.0 mi NNW 5.8 mph - N/A   Overcast
11:15 AM 42.8 °F 38.6 °F 41.0 °F 93% 29.87 in 10.0 mi NW 6.9 mph - N/A   Overcast
11:35 AM 44.6 °F 43.1 °F 41.0 °F 87% 29.86 in 10.0 mi NNW 3.5 mph - N/A   Overcast
11:55 AM 46.4 °F 45.2 °F 41.0 °F 81% 29.86 in 10.0 mi West 3.5 mph - N/A   Overcast
12:15 PM 46.4 °F 45.2 °F 41.0 °F 81% 29.85 in 10.0 mi West 3.5 mph - N/A   Overcast
12:35 PM 48.2 °F - 42.8 °F 82% 29.84 in 10.0 mi Calm Calm - N/A   Overcast
12:55 PM 50.0 °F - 42.8 °F 76% 29.84 in 10.0 mi West 6.9 mph - N/A   Overcast
1:15 PM 50.0 °F - 42.8 °F 76% 29.84 in 10.0 mi West 4.6 mph - N/A   Mostly Cloudy
1:35 PM 51.8 °F - 42.8 °F 71% 29.82 in 10.0 mi WNW 5.8 mph - N/A   Mostly Cloudy
1:55 PM 51.8 °F - 42.8 °F 71% 29.83 in 10.0 mi West 8.1 mph - N/A   Scattered Clouds
2:15 PM 51.8 °F - 42.8 °F 71% 29.82 in 10.0 mi WSW 8.1 mph - N/A   Scattered Clouds
2:35 PM 53.6 °F - 42.8 °F 67% 29.83 in 10.0 mi WSW 6.9 mph - N/A   Clear
2:55 PM 53.6 °F - 42.8 °F 67% 29.83 in 10.0 mi WSW 9.2 mph 16.1 mph N/A   Scattered Clouds
3:15 PM 53.6 °F - 42.8 °F 67% 29.82 in 10.0 mi West 10.4 mph - N/A   Mostly Cloudy
3:35 PM 53.6 °F - 42.8 °F 67% 29.83 in 10.0 mi WSW 3.5 mph - N/A   Mostly Cloudy
3:55 PM 53.6 °F - 42.8 °F 67% 29.83 in 10.0 mi West 8.1 mph - N/A   Overcast
4:15 PM 55.4 °F - 42.8 °F 63% 29.83 in 10.0 mi West 5.8 mph - N/A   Mostly Cloudy
4:35 PM 55.4 °F - 42.8 °F 63% 29.83 in 10.0 mi West 5.8 mph - N/A   Scattered Clouds
4:55 PM 53.6 °F - 42.8 °F 67% 29.83 in 10.0 mi West 4.6 mph - N/A   Mostly Cloudy
5:15 PM 53.6 °F - 42.8 °F 67% 29.84 in 10.0 mi West 6.9 mph - N/A   Overcast
5:35 PM 53.6 °F - 42.8 °F 67% 29.85 in 10.0 mi West 5.8 mph - N/A   Overcast
5:55 PM 53.6 °F - 42.8 °F 67% 29.86 in 10.0 mi WSW 3.5 mph - N/A   Mostly Cloudy
6:15 PM 51.8 °F - 42.8 °F 71% 29.86 in 10.0 mi WSW 3.5 mph - N/A   Scattered Clouds
6:35 PM 51.8 °F - 42.8 °F 71% 29.87 in 10.0 mi WSW 3.5 mph - N/A   Clear
6:55 PM 48.2 °F - 42.8 °F 82% 29.88 in 10.0 mi WSW 3.5 mph - N/A   Clear
7:15 PM 44.6 °F - 42.8 °F 93% 29.88 in 10.0 mi Calm Calm - N/A   Scattered Clouds
7:35 PM 42.8 °F - 42.8 °F 100% 29.89 in 10.0 mi Calm Calm - N/A   Scattered Clouds
7:55 PM 44.6 °F - 42.8 °F 93% 29.90 in 10.0 mi Calm Calm - N/A   Clear
8:15 PM 46.4 °F - 42.8 °F 87% 29.93 in 10.0 mi Calm Calm - N/A   Clear
8:35 PM 50.0 °F - 35.6 °F 58% 29.95 in 10.0 mi NNW 10.4 mph - N/A   Clear
8:55 PM 48.2 °F - 32.0 °F 54% 29.96 in 10.0 mi NNW 8.1 mph - N/A   Clear
9:15 PM 48.2 °F - 30.2 °F 50% 29.98 in 10.0 mi NW 11.5 mph 21.9 mph N/A   Clear
9:35 PM 46.4 °F 42.9 °F 30.2 °F 53% 29.99 in 10.0 mi North 6.9 mph - N/A   Clear
9:55 PM 46.4 °F 43.5 °F 28.4 °F 50% 30.00 in 10.0 mi NNW 5.8 mph - N/A   Clear
10:15 PM 44.6 °F 40.7 °F 30.2 °F 57% 30.01 in 10.0 mi NW 6.9 mph - N/A   Clear
10:35 PM 44.6 °F 40.7 °F 30.2 °F 57% 30.02 in 10.0 mi NW 6.9 mph 19.6 mph N/A   Clear
10:55 PM 44.6 °F 41.4 °F 28.4 °F 53% 30.02 in 10.0 mi NW 5.8 mph 18.4 mph N/A   Clear
11:15 PM 44.6 °F 40.7 °F 28.4 °F 53% 30.03 in 10.0 mi NW 6.9 mph 17.3 mph N/A   Clear
11:35 PM 42.8 °F 37.5 °F 28.4 °F 57% 30.04 in 10.0 mi WNW 9.2 mph 16.1 mph N/A   Clear
11:55 PM 42.8 °F 38.0 °F 28.4 °F 57% 30.05 in 10.0 mi WNW 8.1 mph - N/A   Clear